Regional Weather Roundup
Issued by NWS

Home | Current Version | Previous Version | Text Only | Print | Product List | Glossary On
Versions: 1 2 3 4 5 6 7 8 9 10 11 12 13 14 15 16 17 18 19 20 21 22 23 24 25 26 27 28 29 30 31 32 33 34 35 36 37 38 39 40 41 42 43 44 45 46 47 48 49 50
833
ASUS43 KMKX 271700
RWRWI

WISCONSIN REGIONAL WEATHER ROUNDUP
NATIONAL WEATHER SERVICE MILWAUKEE/SULLIVAN WI
1200 PM CDT TUE JUN 27 2017

NOTE: "FAIR" INDICATES FEW OR NO CLOUDS BELOW 12,000 FEET WITH NO
SIGNIFICANT WEATHER AND/OR OBSTRUCTIONS TO VISIBILITY.

WIZ001-002-006>008-014>016-023>028-271800-
NORTHWEST WISCONSIN

CITY           SKY/WX    TMP DP  RH WIND       PRES   REMARKS
SUPERIOR ARPT  NOT AVBL
ASHLAND        SUNNY     72  51  47 W9        30.01F
HAYWARD        SUNNY     69  43  38 VRB6      30.03F
SIREN          SUNNY     71  43  36 SW10      30.03F
CUMBERLAND     SUNNY     68  41  37 SW7       30.05F
RICE LAKE      SUNNY     69  45  41 SW7       30.06F
CHETEK         SUNNY     69  46  43 SW6       30.05F
LADYSMITH      SUNNY     69  46  43 W7        30.07F
EAU CLAIRE     NOT AVBL
MENOMONIE      SUNNY     72  45  38 SW9       30.05F
NEW RICHMOND   SUNNY     70  42  36 SW3       30.05F
OSCEOLA        SUNNY     71  41  33 SW12      30.06F
$$

WIZ003>005-009-010-017-018-271800-
NORTH CENTRAL WISCONSIN

CITY           SKY/WX    TMP DP  RH WIND       PRES   REMARKS
MANITOWISH WTR PTSUNNY   66  46  47 NW9       30.03F
ARBOR VITAE    SUNNY     70  50  48 W10G16    30.03F
WOODRUFF       SUNNY     70  50  48 W10G16    30.03F
RHINELANDER    PTSUNNY   68  48  48 NW10      30.04F
EAGLE RIVER    SUNNY     67  44  42 NW13      30.03S
LAND O LAKES   SUNNY     68  44  42 NW6       30.04F
PHILLIPS       MOSUNNY   68  47  47 NW12      30.04F
TOMAHAWK       NOT AVBL
MEDFORD        SUNNY     66  46  47 W10G16    30.06F
MERRILL        MOSUNNY   70  47  43 W12G17    30.05F
$$

WIZ029-030-035-036-043>047-271800-
CENTRAL WISCONSIN

CITY           SKY/WX    TMP DP  RH WIND       PRES   REMARKS
WAUSAU         MOSUNNY   71  46  40 W12       30.04F
MOSINEE        NOT AVBL
MARSHFIELD     SUNNY     70  46  42 W10       30.06F
STEVENS POINT  SUNNY     68  46  43 W9        30.07F
WAUPACA        SUNNY     73  45  36 W12       30.06F
WAUTOMA        SUNNY     72  46  39 NW14      30.07F
WISC RAPIDS    MOSUNNY   72  46  39 W13       30.08F
CAMP DOUGLAS   NOT AVBL
$$

WIZ011>013-019>022-031-037>040-048>050-271800-
NORTHEAST WISCONSIN

CITY           SKY/WX    TMP DP  RH WIND       PRES   REMARKS
ANTIGO         MOSUNNY   67  50  54 W12G17    30.05F
SHAWANO        SUNNY     72  48  42 W8        30.04S
OCONTO         SUNNY     69  51  52 W6        30.02F
STURGEON BAY     N/A     68  49  50 VRB5      30.04F
GREEN BAY      SUNNY     72  56  57 VRB7      30.04F
MANITOWOC      NOT AVBL
APPLETON       MOSUNNY   70  45  40 W12G18    30.05F
CLINTONVILLE   MOSUNNY   70  43  37 NW10G17   30.04F
OSHKOSH        MOSUNNY   71  48  43 W10       30.06F
$$

WIZ032>034-041-042-053>061-271800-
SOUTHWEST WISCONSIN

CITY           SKY/WX    TMP DP  RH WIND       PRES   REMARKS
LA CROSSE      SUNNY     76  45  33 VRB6      30.07F
SPARTA         MOSUNNY   70  47  43 NW7       30.10F
VIROQUA        SUNNY     69  43  39 W5        30.11F
BOSCOBEL       MOSUNNY   72  44  36 NW6       30.10F
PRAIRIE DU CHI SUNNY     71  39  31 NW3       30.10F
PLATTEVILLE    SUNNY     71  44  38 SW8       30.13F
$$

WIZ056-057-062-063-064-067-068-271800-
SOUTH CENTRAL WISCONSIN

CITY           SKY/WX    TMP DP  RH WIND       PRES   REMARKS
REEDSBURG      SUNNY     70  47  43 W9        30.09F
BARABOO/DELLS  MOSUNNY   70  44  38 W9        30.10F
LONE ROCK      NOT AVBL
MINERAL POINT  SUNNY     72  43  35 W9        30.12F
MADISON        MOSUNNY   70  47  43 NW7       30.10F
MIDDLETON      SUNNY     71  48  43 NW12G17   30.12S
WATERTOWN      NOT AVBL
MONROE         SUNNY     70  39  32 NW3       30.12F
JANESVILLE     MOSUNNY   73  45  35 W10       30.11F
$$

WIZ051-052-058>065-066-070>072-271800-
SOUTHEAST WISCONSIN

CITY           SKY/WX    TMP DP  RH WIND       PRES   REMARKS
MILWAUKEE      MOSUNNY   72  46  39 W14G21    30.09F
WAUKESHA       MOSUNNY   68  46  45 W10G16    30.12F
MILWAUKEE/TIMM MOSUNNY   70  45  40 W7        30.10F
RACINE         MOSUNNY   72  47  40 W7G16     30.11F
KENOSHA        MOSUNNY   72  49  44 VRB7G17   30.11F
FOND DU LAC    SUNNY     72  48  42 W10       30.07F
SHEBOYGAN      SUNNY     71  52  50 W9        30.07F
WEST BEND      MOSUNNY   68  45  42 W12       30.08F
JUNEAU         SUNNY     68  48  48 W6        30.10F
$$

LSZ147-162-271800-
LAKE SUPERIOR

STATION/POSITION TIME  TEMP    WIND        PRES    WAVE
                       AIR SEA DIR/SP/G            HT/PER
                 (UTC) (F)     (DEG/KT/KT) (MB)    (FT/S)
W MID LAKE BUOY  1550   43 39  220/  8/ 10 1016.0F   1
DEVILS ISLAND    1600   60     230/ 11/ 13 1016.0F
SAXON HARBOR     1640   70     250/  2/ 10 1015.6F
$$

LMZ867-665-643>646-271800-
LAKE MICHIGAN

STATION/POSITION TIME  TEMP    WIND        PRES    WAVE
                       AIR SEA DIR/SP/G            HT/PER
                 (UTC) (F)     (DEG/KT/KT) (MB)    (FT/S)
CHAMBERS ISLAND  1640   66     210/  5/  9 1016.3S
S GREEN BAY BUOY 1630   63     210/ 10/ 12 1016.9F
N MID LAKE BUOY  1550   57 57  270/  6/  8 1017.6R   1/ 4
NORTHPORT PIER   1640   65     330/  7/  9 1016.6S
KEWAUNEE LAKESHO 1630   68     260/  5/  7 1017.0F
SHEBOYGAN LAKESH 1600   66     280/  9/ 11 1018.2F
PORT WASHINGTON  1630   72     290/  8/ 14 1019.3F
ATWATER BUOY     1509   63 56  320/ 10/ 12 1019.2F
MILWAUKEE LAKESH 1630   68     310/  6/  8   N/A
S MID LAKE BUOY  1550   60 61  300/  8/  8 1019.9R   1/ 3
KENOSHA   LAKESH 1600   68     310/  9/ 15 1019.3
$$

TC  - TEMPERATURE IN CELSIUS
VSB - VISIBILITY IN STATUTE MILES
WCI - WIND CHILL INDEX
HX  - HEAT INDEX





USA.gov is the U.S. government's official web portal to all federal, state and local government web resources and services.